Location: Newark
(58.8333°N, 23.5833°E)
Time: 19:42:10
(UTC+00:00)

METEOR M2 - Pass Details

Date: 08 December 2019
Orbit: 819 x 827 km, 98.5° (Epoch: 19 January)

Event Time Altitude Azimuth Distance (km) Brightness Sun altitude
Exits shadow 16:58:44 36° 19° (NNE) 1,287 ? -24.6°
Drops below altitude 10° 17:02:18 10° 350° (N) 2,433 ? -25.0°
Sets 17:04:44 0° 344° (NNW) 3,369 ? -25.4°
